Location: Valley of Enchantment
(34.2467°N, 117.3048°W)
Time: 03:51:05
(UTC+00:00)

Cosmos 2151 - Pass Details

Date: 10 September 2024
Orbit: 567 x 586 km, 82.5° (Epoch: 09 October)

Event Time Altitude Azimuth Distance (km) Brightness Sun altitude
Rises 12:47:59 0° 349° (NNW) 2,771 6.4 -9.3°
Reaches altitude 10° 12:50:11 10° 345° (NNW) 1,871 5.5 -8.8°
Maximum altitude 12:54:15 60° 266° (W) 653 2.9 -8.0°
Drops below altitude 10° 12:58:18 10° 186° (S) 1,866 5.4 -7.2°
Sets 13:00:29 0° 183° (S) 2,762 6.3 -6.7°
